Regional Weather Roundup
Issued by NWS

Home | Current Version | Previous Version | Text Only | Print | Product List | Glossary On
Versions: 1 2 3 4 5 6 7 8 9 10 11 12 13 14 15 16 17 18 19 20 21 22 23 24 25 26 27 28 29 30 31 32 33 34 35 36 37 38 39 40 41 42 43 44 45 46 47 48 49 50
000
ASUS45 KCYS 261610
RWRWY

WYOMING REGIONAL WEATHER ROUNDUP
NATIONAL WEATHER SERVICE CHEYENNE WY
1000 AM MDT SAT JUL 26 2014

NOTE:  "FAIR" INDICATES FEW OR NO CLOUDS BELOW 12,000 FEET
WITH NO SIGNIFICANT WEATHER AND/OR OBSTRUCTIONS TO VISIBILITY.

WYZ001-261700-
YELLOWSTONE NATIONAL PARK

CITY           SKY/WX    TMP DP  RH WIND       PRES   REMARKS
LK YELLOWSTONE   N/A     55  42  61 VRB3      30.40S
W YELLOWSTONE  NOT AVBL

$$
WYZ002>013-054>058-071-098>099-261700-
NORTHERN WYOMING

CITY           SKY/WX    TMP DP  RH WIND       PRES   REMARKS
JACKSON        NOT AVBL
CODY           NOT AVBL
GREYBULL       SUNNY     74  32  21 NW3       30.15R
WORLAND        SUNNY     73  29  19 VRB6      30.16S
SHERIDAN       SUNNY     73  36  25 VRB3      30.17S
BUFFALO        SUNNY     69  33  26 N8        30.22S
GILLETTE       SUNNY     71  38  29 N9        30.17R
HULETT         FAIR      66  45  45 MISG      30.17
NEWCASTLE      FAIR      77  30  18 N12G18    30.13

$$
WYZ014>020-022>026-101>103-261700-
CENTRAL WYOMING

CITY           SKY/WX    TMP DP  RH WIND       PRES   REMARKS
BIG PINEY      SUNNY     71  24  17 VRB3      30.33F
PINEDALE       SUNNY     70  23  17 W9        30.34S
DUBOIS         FAIR      70  21  16 W18G29    30.29S
LANDER         SUNNY     73  30  20 N6        30.20S
RIVERTON       SUNNY     70  32  24 E9        30.21R
CASPER         SUNNY     72  27  18 NE8       30.21F
DOUGLAS        SUNNY     74  30  19 VRB6      30.20S

$$
WYZ021-027>030-104>119-261700-
SOUTHERN WYOMING

CITY           SKY/WX    TMP DP  RH WIND       PRES   REMARKS
EVANSTON       SUNNY     72  35  25 N3        30.35R
KEMMERER       SUNNY     72  21  15 NW9       30.36R
FORT BRIDGER   FAIR      73  36  26 W6        30.36R
ROCK SPRINGS   SUNNY     74  24  15 W6        30.30S
DIXON          FAIR      77  46  33 CALM      30.31S
RAWLINS        SUNNY     78  38  23 W13G20    30.27F
SARATOGA       FAIR      75  43  31 SE3       30.30F
LARAMIE        PTSUNNY   72  47  40 SW10      30.30S
CHEYENNE       PTSUNNY   71  35  26 N10G23    30.23R
TORRINGTON     MOSUNNY   80  37  21 N12       30.09S
PINE BLUFFS    FAIR      70  41  35 N13       30.17S

$$


USA.gov is the U.S. government's official web portal to all federal, state and local government web resources and services.